STARLINK-2298, 48022

Orbit data source: Space-Track

STARLINK-2298, 48022 is a payload satellite owned by SpaceX/Seattle (US) in LEO that was launched on Wed, 24 Mar 2021 UTC via an FALCON 9 launch vehicle from the Air Force Eastern Test Range (AFETR). Payload-class satellites include a variety of spacecraft equipped with specific instruments for various scientific and technological missions. These include communications satellites like Starlink; space stations such as the ISS; scientific satellites like the Hubble; Earth observation satellites from companies like Planet Labs, Umbra, and HawkEye 360; GPS; miniature CubeSats for education and research; and military/defense satellites.

Loading next visibility...
Identifier
48022, 2021-024AX
Orbit
LEO
Country
Flag of USUS
Related business
Manufacturer
SpaceX/Seattle
Mission
Operational Commercial Communications
Bus & Motor
STARLINK, Unknown motor
Mass
260 kg wet, ~248 kg dry
Launch date (UTC)
2021-03-24 (5 years ago)
Launch vehicle
FALCON 9
Launch site
Air Force Eastern Test Range (AFETR)
Object type
Payload
Rocket body
Debris
Shape & HBR
Box + 1 Pan, 10.1 m
Radar Cross Section
13.562 m², Large (>1 m²)

Expand to show TLE details & history
Last TLE update: 18 hours ago

TLE from 18 hours ago
0 STARLINK-2298
1 48022U 21024AX  25349.27440915  .00000217  00000-0  33491-4 0  9994
2 48022  53.0556 350.8529 0001508  91.6648 268.4514 15.06382619261901
Epoch: 2025-12-15T06:35Z
TLE epoch observation values (Epoch: 2025-12-15T06:35:08.950Z)
Latitude
-0°
Longitude
167.89028°
Altitude
548.172 km
Speed
7.589 km/s
True Right ascension
23h 23m 24s
True Declination
0° 00' 00"
Sunlit
Object was in daylight at epoch
Visualization orbit readout
Latitude
Unknown
Longitude
Unknown
Altitude
Unknown
Speed
Unknown
Apparent Right ascension
Unknown
Apparent Declination
Unknown
Sunlit
N/A
Visualization observer readout
Local Sidereal Time
22:53:55
Azimuth
Unknown
Elevation
Unknown
Doppler factor
Unknown
Orbital elements
Apogee altitude
548.58 km
Perigee altitude
546.491 km
Semi-major axis
6,925.672 km
Eccentricity
0.00015
Inclination
53.0556°
RAAN
350.8529°
Arg. of periapsis
91.6648°
True anomaly
268.43413°
Mean anomaly
268.4514°
Eccentric anomaly
268.44276°
Mean motion
3.76574 °/min
Orbital period
95.6 mins
BSTAR
0.000033491
Loading maneuver chart data...
Computing Atmospheric mass density...

Documentation

Showing up to 5 results
|